Location: Dudmore
(33.8567°N, 118.3509°W)
Time: 13:10:32
(UTC+00:00)

Daily predictions for brighter satellites

Satellite Brightness Start Highest point End
(mag) Time Altitude Azimuth Time Altitude Azimuth Time Altitude Azimuth
USA 238 DEB 4.3 12:10:11 41° N 12:10:11 41° N 12:14:31 10° NNE
USA 238 4.3 12:10:15 41° N 12:10:15 41° N 12:14:38 10° NNE
Cosmos 2034 Rocket 4.1 12:08:28 52° NNE 12:10:01 71° E 12:16:17 10° SSE
Cosmos 1943 Rocket 3.9 12:34:38 20° N 12:34:38 20° N 12:36:22 10° N
Tsikada Rocket 3.8 12:26:44 10° S 12:32:54 80° W 12:39:11 10° N
CZ-2C R/B 4.2 12:28:05 10° SE 12:32:57 33° ENE 12:37:45 10° N
Cosmos 2082 Rocket 3.4 12:45:15 26° SW 12:45:15 26° SW 12:48:04 10° SSW
Cosmos 1812 3.9 12:52:27 11° N 12:55:55 41° E 12:59:32 10° SSE
Okean 3 Rocket 4.5 12:52:14 10° SSE 12:56:36 51° E 13:01:01 10° NNE
SL-19 R/B 4.3 12:51:53 10° SSE 12:57:33 81° ENE 13:03:07 10° NNW
Cosmos 1241 Rocket 4.5 12:53:49 23° NNW 12:57:50 79° ENE 13:04:03 10° SSE
Cosmos 921 Rocket 3.8 12:54:48 16° N 12:58:12 53° ENE 13:02:33 10° SSE
DELTA 2 R/B (1) 3.5 12:56:59 46° W 12:58:37 72° NNW 13:04:10 10° ENE
MOS 1-B Rocket 4.0 12:52:31 10° SSE 12:59:13 86° ENE 13:05:07 10° NNW
Cosmos 2098 Rocket 2.8 12:56:10 10° S 12:59:39 79° E 13:04:02 10° N
Envisat 2.9 12:55:03 10° N 13:00:09 85° W 13:05:13 10° SSW
Cosmos 968 Rocket 4.2 13:03:36 32° NW 13:03:36 32° NW 13:07:00 10° N
CZ-3 R/B 4.1 12:50:41 10° SW 13:04:58 28° S 13:10:38 10° ESE
Cosmos 1766 Rocket 3.5 13:04:19 10° S 13:08:39 83° E 13:12:59 10° N
Meteor 2-3 Rocket 4.2 13:05:10 10° SW 13:10:14 34° WNW 13:15:24 10° NNW
CENTAUR R/B 3.8 13:12:13 19° NW 13:12:13 19° NW 13:16:29 10° N
Cosmos 1151 Rocket 3.5 13:07:35 10° N 13:11:57 64° E 13:16:16 10° SSE
Meteor 1-31 Rocket 2.6 13:10:32 10° N 13:14:25 73° WNW 13:18:18 10° SSW
Cosmos 1782 2.8 13:14:10 36° NW 13:15:22 51° W 13:19:11 10° S
Hubble Space Telescope 2.6 13:15:04 17° SW 13:16:23 20° SSW 13:19:24 10° SSE
Cosmos 1862 3.1 13:13:25 10° S 13:17:21 78° W 13:21:17 10° N
ATLAS 5 CENTAUR R/B 3.0 13:16:06 10° S 13:19:26 33° ESE 13:22:58 10° NE
Cosmos 1354 Rocket 4.1 13:16:28 10° SSW 13:21:43 83° ESE 13:27:01 10° NNE
FALCON 9 R/B 4.1 13:05:30 22° W 13:23:57 90° N 13:30:52 10° E
CBERS 1 LM4 rocket 4.4 13:19:08 10° N 13:23:57 59° WNW 13:28:55 10° SSW
SJ-12 4.4 13:20:26 10° N 13:24:16 38° WNW 13:28:05 10° SW
Cosmos 1328 Rocket 4.0 13:21:21 10° N 13:25:41 62° E 13:29:57 10° SSE
H-2A R/B 3.3 13:22:49 10° N 13:26:11 32° WNW 13:29:34 10° SW
COSMO-SKYMED 1 2.5 13:22:16 10° S 13:26:35 71° WSW 13:30:55 10° NNW
ADEOS 3.6 13:21:25 10° NNE 13:26:40 85° ESE 13:31:52 10° SSW
CZ-4C R/B 3.4 13:26:14 10° SSE 13:29:20 56° ENE 13:32:24 10° N
Gbstr 26 Del rocket 3.4 13:33:47 24° WNW 13:35:47 42° SW 13:40:03 10° SSE
CZ-2C R/B 3.4 13:31:02 10° NNE 13:35:56 67° ESE 13:41:04 10° S
ATLAS 3B R/B 3.4 13:32:18 10° S 13:38:33 56° ESE 13:45:03 10° NE
CZ-4B R/B 3.0 13:37:14 10° NNE 13:40:46 66° E 13:44:21 10° S
Cosmos 1408 Rocket 3.4 13:39:24 10° S 13:43:41 87° W 13:48:01 10° N
Cosmos 2369 Rocket 3.2 13:42:46 10° WSW 13:47:08 23° WNW 13:51:33 10° N
OAO 3 Rocket 4.5 13:43:59 14° W 13:47:31 30° SSW 13:51:48 10° SSE
Uosat 12 SS-18 rocket 4.4 13:44:04 10° SSW 13:48:50 79° WNW 13:54:46 10° NNE
Centaur D-1A AC-35 3.9 13:46:21 10° SW 13:49:52 26° S 13:53:17 10° ESE
Cosmos 1743 Rocket 4.4 13:47:02 10° S 13:51:20 55° E 13:55:37 10° NNE
H-2A R/B 4.2 13:56:31 10° NE 14:00:46 29° E 14:05:02 10° SSE
Cosmos 2279 Rocket 4.2 13:55:45 10° NNW 14:01:39 48° W 14:07:33 10° SSW
USA 215 3.5 13:55:15 10° SE 14:01:43 71° NE 14:08:13 10° NW
FAST Rocket 4.2 13:59:07 10° S 14:01:51 71° E 14:04:30 10° N
Nadezhda 4 Rocket 3.9 13:58:58 10° SSW 14:05:05 72° W 14:11:17 10° N
DMSP B5D2-2 4.1 14:00:49 10° S 14:06:02 82° WSW 14:11:16 10° NNW
Cosmos 1515 Rocket 3.5 14:02:03 10° N 14:06:25 83° W 14:10:43 10° S
SJ 16-02 1.3 14:03:24 10° SSW 14:07:46 72° WNW 14:12:09 10° NNE
SL-27 R/B 3.7 14:04:48 10° N 14:08:14 43° ENE 14:11:35 10° SE
Cosmos 1340 Rocket 2.7 14:05:02 10° S 14:08:56 84° W 14:12:55 10° N
CZ-2C R/B 3.7 14:08:35 10° SSW 14:13:10 27° W 14:17:43 10° NW
Cosmos 1777 Rocket 4.1 14:09:36 10° SSW 14:14:42 58° WNW 14:19:52 10° N
